Location: Doverdale
(52.2833°N, 2.2000°W)
Time: 03:33:30
(UTC+00:00)

S3M - Pass Details

Date: 29 October 2020
Orbit: 950 x 1003 km, 83.0° (Epoch: 27 November)

Event Time Altitude Azimuth Distance (km) Brightness Sun altitude
Rises 18:59:32 0° 193° (SSW) 3,614 7.1 -21.1°
Reaches altitude 10° 19:02:01 10° 194° (SSW) 2,675 6.4 -21.5°
Maximum altitude 19:08:08 78° 281° (WNW) 987 4.1 -22.4°
Drops below altitude 10° 19:14:23 10° 8° (N) 2,721 6.3 -23.4°
Sets 19:16:55 0° 10° (N) 3,680 7.0 -23.7°
